Fortuna, CA

9:15 AM PDT on July 23, 2016 (GMT -0700)
Rohnerville

Weather History for KFOT - April, 2014

Change the Weather History Date:

Thursday, April 3, 2014

  Actual Average (KEKA) Record (KEKA)
Temperature  
Mean Temperature 50 °F 50 °F  
Max Temperature 62 °F 57 °F 78 °F (1966)
Min Temperature 39 °F 43 °F 34 °F (1918)
Degree Days  
Heating Degree Days 14 15  
Month to date heating degree days 45  
Since 1 July heating degree days 3443  
Cooling Degree Days 0 0  
Month to date cooling degree days 0  
Year to date cooling degree days 0  
Moisture  
Dew Point 39 °F    
Average Humidity 74    
Maximum Humidity 100    
Minimum Humidity 32    
Precipitation  
Precipitation 0.00 in 0.14 in 0.98 in (2005)
Month to date precipitation 0.42  
Year to date precipitation 17.85  
Snow  
Snow 0.00 in 0.00 in - ()
Month to date snowfall 0.0  
Since 1 July snowfall 0.2  
Snow Depth -    
Sea Level Pressure  
Sea Level Pressure 30.04 in    
Wind  
Wind Speed 8 mph (SE)    
Max Wind Speed 16 mph    
Max Gust Speed 22 mph    
Visibility 10 miles    
Events      
T = Trace of Precipitation, MM = Missing Value Source: NWS Daily Summary

Daily Weather History Graph

Daily Weather History Graph

Search for Another Location

Airport or City:

Trip Planner

Search our weather history database for the weather conditions in past years. The results will help you decide how hot, cold, wet, or windy it might be!

Date:

Astronomy

Apr. 03, 2014 Rise Set
Actual Time 6:56 AM PDT 7:43 PM PDT
Civil Twilight 6:29 AM PDT 8:11 PM PDT
Nautical Twilight 5:56 AM PDT 8:43 PM PDT
Astronomical Twilight 5:22 AM PDT 9:17 PM PDT
Moon 9:29 AM PDT (4/3) No Moon Set
Length of Visible Light 13h 41m
Length of Day
12h 46m
Waxing Crescent, 18% of the Moon is Illuminated
Apr 3
Waxing Crescent
Apr 7
First Quarter
Apr 15
Full
Apr 22
Last Quarter
Apr 28
New

Hourly Weather History & Observations

Time (PDT) Temp. Windchill Dew Point Humidity Pressure Visibility Wind Dir Wind Speed Gust Speed Precip Events Conditions
12:15 AM 42.8 °F 38.6 °F 42.8 °F 100% 30.12 in 10.0 mi SE 6.9 mph - N/A   Clear
12:35 AM 42.8 °F 38.0 °F 41.0 °F 93% 30.11 in 10.0 mi SE 8.1 mph - N/A   Clear
12:55 AM 41.0 °F 35.8 °F 41.0 °F 100% 30.11 in 10.0 mi SE 8.1 mph - N/A   Clear
1:15 AM 41.0 °F 35.2 °F 41.0 °F 100% 30.11 in 10.0 mi SE 9.2 mph - N/A   Clear
1:35 AM 41.0 °F 35.8 °F 41.0 °F 100% 30.10 in 1.8 mi SE 8.1 mph - N/A   Clear
1:55 AM 41.0 °F 35.8 °F 41.0 °F 100% 30.10 in 0.5 mi SE 8.1 mph - N/A   Unknown
2:15 AM 41.0 °F 35.8 °F 41.0 °F 100% 30.10 in 3.0 mi SSE 8.1 mph - N/A   Partly Cloudy
2:35 AM 41.0 °F 35.8 °F 41.0 °F 100% 30.10 in 10.0 mi SE 8.1 mph - N/A   Clear
2:55 AM 41.0 °F 35.2 °F 41.0 °F 100% 30.09 in 10.0 mi SE 9.2 mph - N/A   Clear
3:15 AM 41.0 °F 36.4 °F 41.0 °F 100% 30.09 in 10.0 mi SSE 6.9 mph - N/A   Clear
3:35 AM 41.0 °F 35.8 °F 39.2 °F 93% 30.09 in 10.0 mi SE 8.1 mph - N/A   Clear
3:55 AM 41.0 °F 36.4 °F 39.2 °F 93% 30.08 in 10.0 mi SSE 6.9 mph - N/A   Clear
4:15 AM 41.0 °F 35.2 °F 41.0 °F 100% 30.08 in 10.0 mi SE 9.2 mph - N/A   Clear
4:35 AM 41.0 °F 35.2 °F 39.2 °F 93% 30.07 in 10.0 mi SE 9.2 mph - N/A   Clear
4:55 AM 39.2 °F 32.5 °F 39.2 °F 100% 30.07 in 3.0 mi SE 10.4 mph - N/A   Clear
5:15 AM 39.2 °F 33.6 °F 39.2 °F 100% 30.07 in 10.0 mi SSE 8.1 mph - N/A   Clear
5:35 AM 39.2 °F 33.6 °F 39.2 °F 100% 30.07 in 10.0 mi SE 8.1 mph - N/A   Clear
5:55 AM 39.2 °F 33.6 °F 39.2 °F 100% 30.07 in 10.0 mi SSE 8.1 mph - N/A   Clear
6:15 AM 39.2 °F 34.2 °F 39.2 °F 100% 30.06 in 10.0 mi SSE 6.9 mph - N/A   Clear
6:35 AM 41.0 °F 35.2 °F 41.0 °F 100% 30.06 in 10.0 mi SE 9.2 mph - N/A   Clear
6:55 AM 41.0 °F 35.2 °F 41.0 °F 100% 30.06 in 10.0 mi SE 9.2 mph - N/A   Clear
7:15 AM 41.0 °F 35.2 °F 39.2 °F 93% 30.06 in 10.0 mi SE 9.2 mph - N/A   Clear
7:35 AM 39.2 °F 33.6 °F 39.2 °F 100% 30.06 in 10.0 mi SE 8.1 mph - N/A   Clear
7:55 AM 41.0 °F 35.8 °F 39.2 °F 93% 30.06 in 10.0 mi SSE 8.1 mph - N/A   Clear
8:15 AM 41.0 °F 35.2 °F 41.0 °F 100% 30.06 in 10.0 mi SSE 9.2 mph - N/A   Mostly Cloudy
8:35 AM 41.0 °F 36.4 °F 41.0 °F 100% 30.06 in 10.0 mi SSE 6.9 mph - N/A   Overcast
8:55 AM 42.8 °F 38.0 °F 41.0 °F 93% 30.06 in 10.0 mi SE 8.1 mph - N/A   Overcast
9:15 AM 44.6 °F 40.2 °F 42.8 °F 93% 30.06 in 10.0 mi SE 8.1 mph - N/A   Mostly Cloudy
9:35 AM 44.6 °F 40.7 °F 44.6 °F 100% 30.06 in 10.0 mi SSE 6.9 mph - N/A   Partly Cloudy
9:55 AM 46.4 °F 42.9 °F 44.6 °F 93% 30.06 in 10.0 mi SSE 6.9 mph - N/A   Mostly Cloudy
10:15 AM 48.2 °F - 44.6 °F 87% 30.06 in 10.0 mi SE 5.8 mph - N/A   Overcast
10:35 AM 48.2 °F - 44.6 °F 87% 30.06 in 10.0 mi SSE 3.5 mph - N/A   Mostly Cloudy
10:55 AM 50.0 °F - 44.6 °F 82% 30.06 in 10.0 mi SSE 4.6 mph - N/A   Mostly Cloudy
11:15 AM 53.6 °F - 46.4 °F 77% 30.06 in 10.0 mi SSE 5.8 mph - N/A   Mostly Cloudy
11:35 AM 55.4 °F - 44.6 °F 67% 30.06 in 10.0 mi South 4.6 mph - N/A   Partly Cloudy
11:55 AM 55.4 °F - 44.6 °F 67% 30.05 in 10.0 mi SE 3.5 mph - N/A   Clear
12:15 PM 57.2 °F - 41.0 °F 55% 30.05 in 10.0 mi ESE 6.9 mph - N/A   Clear
12:35 PM 57.2 °F - 39.2 °F 51% 30.04 in 10.0 mi SE 4.6 mph - N/A   Clear
12:55 PM 59.0 °F - 39.2 °F 48% 30.04 in 10.0 mi ESE 5.8 mph - N/A   Clear
1:15 PM 59.0 °F - 39.2 °F 48% 30.03 in 10.0 mi ESE 5.8 mph - N/A   Clear
1:35 PM 60.8 °F - 37.4 °F 42% 30.03 in 10.0 mi Calm Calm - N/A   Clear
1:55 PM 60.8 °F - 35.6 °F 39% 30.02 in 10.0 mi South 4.6 mph - N/A   Partly Cloudy
2:15 PM 62.6 °F - 35.6 °F 37% 30.02 in 10.0 mi SE 15.0 mph - N/A   Scattered Clouds
2:35 PM 62.6 °F - 33.8 °F 34% 30.01 in 10.0 mi SE 15.0 mph - N/A   Partly Cloudy
2:55 PM 62.6 °F - 32.0 °F 32% 30.00 in 10.0 mi SE 12.7 mph 18.4 mph N/A   Clear
3:15 PM 62.6 °F - 32.0 °F 32% 30.00 in 10.0 mi SSE 16.1 mph 21.9 mph N/A   Clear
3:35 PM 60.8 °F - 32.0 °F 34% 30.00 in 10.0 mi SE 11.5 mph 18.4 mph N/A   Clear
3:55 PM 60.8 °F - 35.6 °F 39% 30.00 in 10.0 mi South 6.9 mph - N/A   Clear
4:15 PM 59.0 °F - 35.6 °F 42% 30.00 in 10.0 mi South 9.2 mph 18.4 mph N/A   Scattered Clouds
4:35 PM 57.2 °F - 32.0 °F 38% 30.00 in 10.0 mi South 11.5 mph 17.3 mph N/A   Mostly Cloudy
4:55 PM 57.2 °F - 32.0 °F 38% 30.00 in 10.0 mi South 11.5 mph 16.1 mph N/A   Partly Cloudy
5:15 PM 57.2 °F - 33.8 °F 41% 30.00 in 10.0 mi South 6.9 mph 18.4 mph N/A   Clear
5:35 PM 57.2 °F - 33.8 °F 41% 30.00 in 10.0 mi South 6.9 mph - N/A   Mostly Cloudy
5:55 PM 55.4 °F - 35.6 °F 47% 30.00 in 10.0 mi South 9.2 mph - N/A   Scattered Clouds
6:15 PM 55.4 °F - 35.6 °F 47% 30.00 in 10.0 mi South 10.4 mph 17.3 mph N/A   Mostly Cloudy
6:55 PM 53.6 °F - 35.6 °F 51% 30.00 in 10.0 mi SSE 5.8 mph - N/A   Overcast
7:15 PM 53.6 °F - 37.4 °F 54% 30.00 in 10.0 mi ESE 10.4 mph - N/A   Overcast
7:35 PM 53.6 °F - 35.6 °F 51% 30.00 in 10.0 mi ESE 11.5 mph - N/A   Overcast
9:15 PM 51.8 °F - 37.4 °F 58% 30.00 in 10.0 mi ESE 13.8 mph - N/A   Overcast
9:35 PM 51.8 °F - 39.2 °F 62% 30.00 in 10.0 mi ESE 11.5 mph - N/A   Overcast
9:55 PM 50.0 °F - 39.2 °F 66% 30.01 in 10.0 mi ESE 11.5 mph - N/A   Overcast
10:15 PM 50.0 °F - 39.2 °F 66% 30.01 in 10.0 mi ESE 10.4 mph - N/A   Overcast
10:35 PM 50.0 °F - 39.2 °F 66% 30.01 in 10.0 mi ESE 12.7 mph - N/A   Overcast
10:55 PM 50.0 °F - 41.0 °F 71% 30.00 in 10.0 mi ESE 11.5 mph - N/A   Overcast
11:15 PM 50.0 °F - 41.0 °F 71% 30.01 in 10.0 mi ESE 11.5 mph - N/A   Overcast
11:35 PM 50.0 °F - 41.0 °F 71% 30.01 in 10.0 mi ESE 10.4 mph - N/A   Overcast
11:55 PM 50.0 °F - 41.0 °F 71% 30.01 in 10.0 mi ESE 9.2 mph - N/A   Overcast